Hourly Data Report for September 04, 2017

All times are specified in Local Standard Time (LST). Add 1 hour to adjust for Daylight Saving Time where and when it is observed.

KITCHENER/WATERLOO
ONTARIO

43°27'39.000" N
80°22'43.000" W
321.60 m
6144239
71368
YKF

Download Data

Hourly Data (September 2017)
Hourly Data Report for September 4, 2017
Temp Definition
°C
Dew Point Temp Definition
°C
Rel Hum Definition
%
Wind Dir Definition
10's deg

Wind Spd Definition
km/h
Visibility Definition
km
Stn Press Definition
kPa
Hmdx Definition


Wind Chill Definition


Weather Definition


TIME
00:00 Legend Double Dagger 15.5 12.7 83 24 18 16.1 97.39     LegendNANA
01:00 Legend Double Dagger 15.6 12.4 81 23 22 16.1 97.35     LegendNANA
02:00 Legend Double Dagger 15.0 12.2 83 24 15 16.1 97.34     LegendNANA
03:00 Legend Double Dagger 14.1 12.0 87 23 15 16.1 97.30     LegendNANA
04:00 Legend Double Dagger 13.9 12.0 88 23 13 16.1 97.27     LegendNANA
05:00 Legend Double Dagger 13.9 12.0 88 22 13 16.1 97.22     LegendNANA
06:00 Legend Double Dagger 13.5 11.9 90 20 17 16.1 97.22     LegendNANA
07:00 Legend Double Dagger 15.0 12.2 83 20 17 16.1 97.22     LegendNANA
08:00 Legend Double Dagger 17.6 13.3 75 21 18 16.1 97.19     LegendNANA
09:00 Legend Double Dagger 19.9 14.1 69 22 24 16.1 97.15     LegendNANA
10:00 Legend Double Dagger 22.0 15.2 65 22 35 16.1 97.02 26   LegendNANA
11:00 Legend Double Dagger 23.4 15.0 59 22 37 16.1 96.91 27   LegendNANA
12:00 Legend Double Dagger 24.2 15.6 58 22 32 16.1 96.79 29   LegendNANA
13:00 Legend Double Dagger 24.5 15.3 56 22 43 16.1 96.71 29   LegendNANA
14:00 Legend Double Dagger 24.7 16.0 58 20 35 16.1 96.57 29   LegendNANA
15:00 Legend Double Dagger 23.8 14.4 55 21 39 16.1 96.44 27   LegendNANA
16:00 Legend Double Dagger 24.0 13.6 52 20 45 16.1 96.35 27   LegendNANA
17:00 Legend Double Dagger 22.1 15.4 66 21 32 16.1 96.38 26   Thunderstorms,Rain
18:00 Legend Double Dagger 22.9 15.2 62 21 26 16.1 96.25 27   LegendNANA
19:00 Legend Double Dagger 18.3 17.3 94 29 24 4.0 96.46     Thunderstorms,Heavy Rain,Fog
20:00 Legend Double Dagger 17.9 16.9 94 31 26 16.1 96.48     Thunderstorms,Rain
21:00 Legend Double Dagger 16.6 14.8 89 31 24 16.1 96.59     LegendNANA
22:00 Legend Double Dagger 15.1 13.8 92 31 17 16.1 96.68     LegendNANA
23:00 Legend Double Dagger 14.1 13.2 94 28 11 16.1 96.72     LegendNANA

Notes on Data Quality.

Legend

  • E = Estimated
  • M = Missing
  • NA = Not Available
  • ‡ = Partner data that is not subject to review by the National Climate Archives
Date modified: